Location: Daerah Kuala Lumpur
(3.1167°N, 101.6833°E)
Time: 20:46:33
(UTC+00:00)

SL-4 R/B - Pass Details

Date: 05 August 2024
Orbit: 409 x 589 km, 51.6° (Epoch: 18 September)

Event Time Altitude Azimuth Distance (km) Brightness Sun altitude
Rises 12:34:27 0° 195° (SSW) 2,817 5.6 -17.0°
Reaches altitude 10° 12:37:01 10° 182° (S) 1,924 4.6 -17.6°
Enters shadow 12:38:38 18° 166° (SSE) 1,457 3.9 -18.0°
